Location: Bacea
(45.9500°N, 22.6667°E)
Time: 15:56:54
(UTC+00:00)

Envisat - Pass Details

Date: 06 February 2022
Orbit: 764 x 765 km, 98.2° (Epoch: 15 May)

Event Time Altitude Azimuth Distance (km) Brightness Sun altitude
Rises 02:28:59 0° 24° (NNE) 3,242 6.7 -34.4°
Reaches altitude 10° 02:31:39 10° 36° (NE) 2,312 6.0 -33.9°
Maximum altitude 02:35:55 27° 94° (E) 1,450 4.9 -33.2°
Drops below altitude 10° 02:40:11 10° 151° (SSE) 2,298 5.6 -32.5°
Sets 02:42:49 0° 164° (SSE) 3,219 6.3 -32.0°
